Regional Weather Roundup
Issued by NWS

Home | Current Version | Previous Version | Text Only | Print | Product List | Glossary On
Versions: 1 2 3 4 5 6 7 8 9 10 11 12 13 14 15 16 17 18 19 20 21 22 23 24 25 26 27 28 29 30 31 32 33 34 35 36 37 38 39 40 41 42 43 44 45 46 47 48 49 50
000
ASUS43 KTOP 172008
RWRKS

WEATHER ROUNDUP FOR KANSAS
NATIONAL WEATHER SERVICE GOODLAND KS
300 PM CDT THU AUG 17 2017

NOTE:  "FAIR" INDICATES FEW OR NO CLOUDS BELOW 12,000 FEET WITH NO
SIGNIFICANT WEATHER AND/OR OBSTRUCTIONS TO VISIBILITY.

KSZ001>006-013>018-027>032-041>047-172100-
NORTHWEST KANSAS

CITY           SKY/WX    TMP DP  RH WIND       PRES   REMARKS
GOODLAND       SUNNY     83  57  41 S15       30.06F
HAYS           SUNNY     86  55  34 S9        30.03F
HILL CITY      SUNNY     89  50  26 S8        30.02F
RUSSELL        SUNNY     89  51  27 NW6       30.01F
$$

KSZ061>065-074>080-084>089-172100-
SOUTHWEST KANSAS

CITY           SKY/WX    TMP DP  RH WIND       PRES   REMARKS
DODGE CITY     SUNNY     89  52  28 MISG      30.07F
ELKHART          N/A     83  63  51 S8          N/A
GARDEN CITY    SUNNY     86  56  35 SW8       30.06F
GREAT BEND     SUNNY     85  54  34 W3        30.04F
LIBERAL        SUNNY     88  60  38 S10       30.08F
PRATT          SUNNY     87  46  24 NE3       30.05F
$$

KSZ066>073-081>083-090>101-172100-
SOUTHEAST KANSAS

CITY           SKY/WX    TMP DP  RH WIND       PRES   REMARKS
CHANUTE        SUNNY     83  62  49 W8        30.00F
COFFEYVILLE    SUNNY     85  67  54 MISG      30.00F
HUTCHINSON     SUNNY     86  54  33 SE6       30.02F
MEDICINE LODGE   N/A     86  54  33 SW7       30.03F
NEWTON         SUNNY     83  56  39 CALM      30.04S
PARSONS        SUNNY     84  64  50 NW7       30.01F
WICHITA INTL   MOSUNNY   86  57  37 VRB3      30.02F
WICHITA JABRA  SUNNY     84  60  44 VRB5      30.03S
WICHITA MCCONL SUNNY     85  53  32 S6        30.03F
WINFIELD       SUNNY     84  60  44 NE5       30.04S
$$

KSZ007>012-019>026-033>040-048>060-102>105-172100-
NORTHEAST KANSAS

CITY           SKY/WX    TMP DP  RH WIND       PRES   REMARKS
CONCORDIA      SUNNY     84  60  44 VRB5      29.99F
EMPORIA        SUNNY     83  57  41 VRB7      30.00F
LAWRENCE       SUNNY     83  62  49 W13       29.97S
MANHATTAN      SUNNY     86  59  39 VRB3      29.98F
MARYSVILLE     SUNNY     86  55  35 W8G16     29.97F
OLATHE IND     SUNNY     81  60  48 W14       29.98F
OLATHE EXE     SUNNY     80  61  52 W12       29.98S
SALINA         SUNNY     90  52  27 NW10      30.00F
TOPEKA BILLARD SUNNY     86  57  37 NW9G21    29.96F
TOPEKA FORBES  SUNNY     85  62  46 NW10      29.97F
$$




USA.gov is the U.S. government's official web portal to all federal, state and local government web resources and services.